| time (UTC) | temp F | wind direction | speed knots | gust knots | rain 1hr in | rain 24hr in | rain mn in | humidity % | barometer mb |
| 20260505051541 | 71 | 0 | 0.0 | 0.0 | 0.00 | 0.00 | 0.00 | 81 | 1016.1 |
| 20260505041536 | 71 | 0 | 0.0 | 0.0 | 0.00 | 0.00 | 0.00 | 78 | 1016.6 |
| 20260505040042 | 72 | 0 | 0.0 | 0.0 | 0.00 | 0.00 | 0.00 | 78 | 1016.6 |
| 20260505034535 | 72 | 0 | 0.0 | 0.0 | 0.00 | 0.00 | 0.00 | 77 | 1016.4 |
| 20260505033041 | 73 | 0 | 0.0 | 0.0 | 0.00 | 0.00 | 0.00 | 76 | 1016.5 |
| 20260505031536 | 73 | 0 | 0.0 | 0.9 | 0.00 | 0.00 | 0.00 | 75 | 1016.6 |
| 20260505030035 | 73 | 0 | 0.0 | 0.0 | 0.00 | 0.00 | 0.00 | 75 | 1016.4 |
| 20260505024534 | 74 | 0 | 0.0 | 0.9 | 0.00 | 0.00 | 0.00 | 74 | 1016.6 |
| 20260505023034 | 74 | 0 | 0.0 | 0.9 | 0.00 | 0.00 | 0.00 | 73 | 1016.4 |
| 20260505021537 | 75 | 0 | 0.0 | 0.9 | 0.00 | 0.00 | 0.00 | 72 | 1016.2 |
| 20260505020035 | 75 | 0 | 0.0 | 0.0 | 0.00 | 0.00 | 0.00 | 72 | 1016.2 |
| 20260505014535 | 76 | 0 | 0.0 | 0.9 | 0.00 | 0.00 | 0.00 | 71 | 1015.9 |
| 20260505013036 | 76 | 0 | 0.0 | 0.0 | 0.00 | 0.00 | 0.00 | 70 | 1015.7 |
| 20260505011541 | 76 | 0 | 0.0 | 1.7 | 0.00 | 0.00 | 0.00 | 70 | 1015.6 |
| 20260505010039 | 75 | 308 | 0.0 | 1.7 | 0.00 | 0.00 | 0.00 | 68 | 1015.5 |
| 20260505004536 | 75 | 0 | 0.0 | 3.5 | 0.00 | 0.00 | 0.00 | 68 | 1015.1 |
| 20260505003035 | 76 | 316 | 2.6 | 5.2 | 0.00 | 0.00 | 0.00 | 68 | 1014.9 |
| 20260505001535 | 77 | 330 | 0.9 | 6.1 | 0.00 | 0.00 | 0.00 | 67 | 1014.9 |
| 20260505000036 | 78 | 349 | 2.6 | 6.1 | 0.00 | 0.00 | 0.00 | 65 | 1014.6 |
| 20260504234533 | 79 | 335 | 3.5 | 7.0 | 0.00 | 0.00 | 0.00 | 61 | 1014.2 |
| 20260504233039 | 82 | 332 | 0.9 | 6.1 | 0.00 | 0.00 | 0.00 | 57 | 1014.2 |
| 20260504231538 | 86 | 0 | 0.0 | 0.0 | 0.00 | 0.00 | 0.00 | 52 | 1013.9 |
| 20260504230035 | 85 | 0 | 0.0 | 0.9 | 0.00 | 0.00 | 0.00 | 52 | 1013.9 |
| 20260504224536 | 84 | 0 | 0.0 | 0.9 | 0.00 | 0.00 | 0.00 | 52 | 1013.8 |
| 20260504223037 | 84 | 0 | 0.0 | 0.9 | 0.00 | 0.00 | 0.00 | 51 | 1013.7 |
| 20260504221538 | 87 | 105 | 0.0 | 0.9 | 0.00 | 0.00 | 0.00 | 47 | 1013.9 |
| 20260504220038 | 86 | 276 | 0.0 | 0.9 | 0.00 | 0.00 | 0.00 | 49 | 1013.9 |
| 20260504214547 | 87 | 302 | 0.0 | 1.7 | 0.00 | 0.00 | 0.00 | 46 | 1013.8 |
| 20260504213040 | 86 | 37 | 0.0 | 0.9 | 0.00 | 0.00 | 0.00 | 48 | 1013.9 |
| 20260504211534 | 85 | 105 | 0.0 | 2.6 | 0.00 | 0.00 | 0.00 | 52 | 1014.2 |
| 20260504210040 | 85 | 115 | 0.0 | 1.7 | 0.00 | 0.00 | 0.00 | 49 | 1014.2 |
| 20260504204535 | 85 | 0 | 0.9 | 2.6 | 0.00 | 0.00 | 0.00 | 50 | 1014.3 |
| 20260504203035 | 84 | 77 | 0.0 | 1.7 | 0.00 | 0.00 | 0.00 | 52 | 1014.4 |
| 20260504201537 | 83 | 0 | 0.0 | 2.6 | 0.00 | 0.00 | 0.00 | 54 | 1014.3 |
| 20260504200041 | 83 | 88 | 0.9 | 1.7 | 0.00 | 0.00 | 0.00 | 51 | 1014.6 |
| 20260504194541 | 83 | 86 | 0.0 | 2.6 | 0.00 | 0.00 | 0.00 | 52 | 1014.7 |
| 20260504193035 | 82 | 319 | 0.9 | 3.5 | 0.00 | 0.00 | 0.00 | 51 | 1015.2 |
| 20260504191550 | 82 | 70 | 0.0 | 3.5 | 0.00 | 0.00 | 0.00 | 52 | 1015.3 |
| 20260504190038 | 82 | 283 | 0.0 | 4.3 | 0.00 | 0.00 | 0.00 | 52 | 1015.4 |
| 20260504184548 | 82 | 280 | 0.0 | 2.6 | 0.00 | 0.00 | 0.00 | 54 | 1015.7 |
| 20260504183044 | 82 | 0 | 0.0 | 3.5 | 0.00 | 0.00 | 0.00 | 55 | 1016.0 |
| 20260504181544 | 82 | 165 | 0.0 | 2.6 | 0.00 | 0.00 | 0.00 | 54 | 1016.2 |
| 20260504180036 | 81 | 91 | 0.9 | 3.5 | 0.00 | 0.00 | 0.00 | 56 | 1016.6 |
| 20260504174535 | 81 | 0 | 0.9 | 2.6 | 0.00 | 0.00 | 0.00 | 56 | 1016.6 |
| 20260504173037 | 81 | 293 | 0.9 | 5.2 | 0.00 | 0.00 | 0.00 | 54 | 1016.5 |
| 20260504171535 | 81 | 0 | 0.0 | 0.9 | 0.00 | 0.00 | 0.00 | 54 | 1016.6 |
| 20260504081541 | 0 | 0.0 | 0.0 | 0.00 | 0.00 | 0.00 | 1016.2 |